Sacramento, CA
on Friday, February 22, 2013

Friday
Previous Day Next Day
Daily Summary
 ActualAverageRecord
Temperature
Mean Temperature - -  
Max Temperature 63 °F 62 °F 75 °F (1985)
Min Temperature 32 °F 42 °F 30 °F (1975)
Degree Days
Heating Degree Days 17    
Cooling Degree Days 0    
Moisture
Dew Point 35 °F   
Average Humidity 60    
Maximum Humidity 89    
Minimum Humidity 30    
Precipitation
Precipitation 0.00 in 0.12 in 1.26 in (2009)
Month to date precipitation 0.36 2.75  
Year to date precipitation 1.32 6.39  
Wind
Wind Speed 2 mph   
Max Wind Speed 8 mph   
Max Gust Speed 12 mph   
Visibility 10 miles   
Events     

Key: T is trace of precipitation, MM is missing value
Source: NWS Daily Summary
Time(PST)TemperatureDew PointHumidity Pressure Visibility Wind DirectionWind SpeedGust SpeedPrecipitationEvents Conditions
12:53 AM 42.1 °F 33.1 °F 70% 30.17 in 10.0 miles WSW 3.5 mph - N/A   Clear
1:53 AM 42.1 °F 34.0 °F 73% 30.17 in 10.0 miles Calm Calm - N/A   Clear
2:53 AM 37.9 °F 32.0 °F 79% 30.17 in 10.0 miles East 3.5 mph - N/A   Clear
3:53 AM 36.0 °F 30.9 °F 82% 30.18 in 10.0 miles Calm Calm - N/A   Clear
4:53 AM 34.0 °F 30.0 °F 85% 30.19 in 10.0 miles Calm Calm - N/A   Clear
5:53 AM 34.0 °F 30.0 °F 85% 30.21 in 10.0 miles Calm Calm - N/A   Clear
6:53 AM 34.0 °F 30.0 °F 85% 30.22 in 10.0 miles Calm Calm - N/A   Clear
7:53 AM 37.9 °F 32.0 °F 79% 30.24 in 10.0 miles Calm Calm - N/A   Clear
8:53 AM 45.0 °F 35.1 °F 68% 30.25 in 10.0 miles Calm Calm - N/A   Clear
9:53 AM 48.9 °F 36.0 °F 61% 30.26 in 10.0 miles Calm Calm - N/A   Clear
10:53 AM 53.1 °F 36.0 °F 52% 30.25 in 10.0 miles Calm Calm - N/A   Clear
11:53 AM 55.9 °F 36.0 °F 47% 30.24 in 10.0 miles Calm Calm - N/A   Clear
12:53 PM 57.9 °F 34.0 °F 41% 30.22 in 10.0 miles Calm Calm - N/A   Clear
1:53 PM 60.1 °F 30.9 °F 33% 30.19 in 10.0 miles Variable 3.5 mph - N/A   Clear
2:53 PM 62.1 °F 30.9 °F 31% 30.18 in 10.0 miles Calm Calm - N/A   Clear
3:53 PM 61.0 °F 35.1 °F 38% 30.17 in 10.0 miles South 3.5 mph - N/A   Clear
4:53 PM 61.0 °F 37.0 °F 41% 30.17 in 10.0 miles SSE 6.9 mph - N/A   Clear
5:53 PM 59.0 °F 37.0 °F 44% 30.16 in 10.0 miles South 5.8 mph - N/A   Clear
6:53 PM 55.9 °F 37.0 °F 49% 30.16 in 10.0 miles SSE 4.6 mph - N/A   Clear
7:53 PM 54.0 °F 37.0 °F 53% 30.17 in 10.0 miles South 5.8 mph - N/A   Clear
8:53 PM 54.0 °F 37.0 °F 53% 30.16 in 10.0 miles South 5.8 mph - N/A   Clear
9:53 PM 52.0 °F 37.9 °F 59% 30.18 in 10.0 miles South 5.8 mph - N/A   Overcast
10:53 PM 51.1 °F 39.0 °F 63% 30.19 in 10.0 miles South 6.9 mph - N/A   Mostly Cloudy
11:53 PM 51.1 °F 41.0 °F 68% 30.19 in 10.0 miles SSE 8.1 mph - N/A   Overcast

Astronomy

Sunrise: 06:47 AM (PST) Moon Rise: 03:09 PM (PST) 2 / 22
Sunset: 05:52 PM (PST) Moon Set: 04:34 AM (PST) 2 / 22
Moon Phase
Feb. 22 Feb. 25 Mar. 04 Mar. 11 Mar. 19


Powered by Weather Underground, Inc.